Zurück zum Katalog

CZ-6A DEB

AktivPO
NORAD 60964·DEBRIS·🇨🇳 China

Gestartet Aug 6, 2024 von Taiyuan Satellite Launch Center

Loading…

Nächste Überflüge (nächste 24 Stunden)

TLE

AktuellSource: Space-Track

Epoche: Sep 13, 2026, 00:26 UTC

1 60964U 24140LP  26256.01839561  .00000214  00000-0  76234-4 0  9993
2 60964  89.0423 267.5319 0008347  29.3727 330.7937 14.30693338107727

Verfolge CZ-6A DEB in Echtzeit mit AllMySat

Download on the App Store